Weather History for Willmar, MN

Change the Weather History Date:

Monday, April 14, 2014

  Actual Average (KLJF) Record (KLJF)
Temperature  
Mean Temperature 29 °F -  
Max Temperature 35 °F 54 °F 89 °F (2003)
Min Temperature 23 °F 33 °F 19 °F (2008)
Degree Days  
Heating Degree Days 36    
Moisture  
Dew Point 10 °F    
Average Humidity 47    
Maximum Humidity 64    
Minimum Humidity 26    
Precipitation  
Precipitation 0.00 in - - ()
Sea Level Pressure  
Sea Level Pressure 30.11 in    
Wind  
Wind Speed 20 mph (NNW)    
Max Wind Speed 26 mph    
Max Gust Speed 36 mph    
Visibility 10 miles    
Events      
Averages and records for this station are not official NWS values.
T = Trace of Precipitation, MM = Missing Value Source: NWS Daily Summary

Daily Weather History Graph

Daily Weather History Graph

Search for Another Location

Airport:

Trip Planner

Search our weather history database for the weather conditions in past years. The results will help you decide how hot, cold, wet, or windy it might be!

Date:

Astronomy

Apr. 14, 2014 Rise Set
Actual Time 6:37 AM CDT 8:04 PM CDT
Civil Twilight 6:06 AM CDT 8:35 PM CDT
Nautical Twilight 5:29 AM CDT 9:12 PM CDT
Astronomical Twilight 4:50 AM CDT 9:52 PM CDT
Moon 7:44 PM CDT (4/14) 6:11 AM CDT (4/14)
Length of Visible Light 14h 28m
Length of Day
13h 27m
Full, 100% of the Moon is Illuminated
Apr 14
Full
Apr 15
Full
Apr 22
Last Quarter
Apr 29
New
May 6
First Quarter

Hourly Weather History & Observations

Time (CDT) Temp. Windchill Dew Point Humidity Pressure Visibility Wind Dir Wind Speed Gust Speed Precip Events Conditions
12:15 AM 30.2 °F 16.5 °F 17.6 °F 60% 30.05 in 10.0 mi North 24.2 mph 35.7 mph N/A   Clear
12:36 AM 30.2 °F 17.1 °F 17.6 °F 60% 30.05 in 10.0 mi NNW 21.9 mph 27.6 mph N/A   Clear
12:55 AM 30.2 °F 17.4 °F 17.6 °F 60% 30.05 in 10.0 mi NNW 20.7 mph 26.5 mph N/A   Clear
1:15 AM 28.4 °F 15.4 °F 17.6 °F 64% 30.05 in 10.0 mi NNW 19.6 mph 26.5 mph N/A   Clear
1:35 AM 28.4 °F 14.1 °F 17.6 °F 64% 30.05 in 10.0 mi NNW 24.2 mph 31.1 mph N/A   Clear
1:56 AM 28.4 °F 13.8 °F 15.8 °F 59% 30.04 in 10.0 mi NNW 25.3 mph 29.9 mph N/A   Clear
2:15 AM 28.4 °F 15.4 °F 15.8 °F 59% 30.04 in 10.0 mi NNW 19.6 mph 26.5 mph N/A   Clear
2:35 AM 28.4 °F 14.7 °F 15.8 °F 59% 30.04 in 10.0 mi NNW 21.9 mph 28.8 mph N/A   Clear
2:55 AM 26.6 °F 13.1 °F 15.8 °F 64% 30.04 in 10.0 mi NNW 19.6 mph 26.5 mph N/A   Clear
3:16 AM 26.6 °F 12.4 °F 15.8 °F 64% 30.04 in 10.0 mi NNW 21.9 mph - N/A   Clear
3:35 AM 26.6 °F 13.8 °F 15.8 °F 64% 30.04 in 10.0 mi NNW 17.3 mph 26.5 mph N/A   Clear
3:56 AM 26.6 °F 13.4 °F 15.8 °F 64% 30.04 in 10.0 mi North 18.4 mph 24.2 mph N/A   Clear
4:15 AM 26.6 °F 13.8 °F 15.8 °F 64% 30.05 in 10.0 mi North 17.3 mph 27.6 mph N/A   Clear
4:36 AM 26.6 °F 13.4 °F 15.8 °F 64% 30.05 in 10.0 mi NNW 18.4 mph 27.6 mph N/A   Clear
4:55 AM 24.8 °F 11.9 °F 14.0 °F 64% 30.05 in 10.0 mi North 16.1 mph 25.3 mph N/A   Clear
5:16 AM 24.8 °F 11.1 °F 14.0 °F 64% 30.05 in 10.0 mi NNW 18.4 mph 24.2 mph N/A   Clear
5:35 AM 24.8 °F 11.5 °F 14.0 °F 64% 30.08 in 10.0 mi NNW 17.3 mph 27.6 mph N/A   Clear
5:56 AM 24.8 °F 11.5 °F 14.0 °F 64% 30.08 in 10.0 mi NNW 17.3 mph 25.3 mph N/A   Clear
6:15 AM 24.8 °F 12.4 °F 14.0 °F 64% 30.09 in 10.0 mi NNW 15.0 mph - N/A   Clear
6:36 AM 24.8 °F 10.7 °F 12.2 °F 59% 30.09 in 10.0 mi North 19.6 mph 25.3 mph N/A   Clear
6:55 AM 24.8 °F 11.5 °F 12.2 °F 59% 30.10 in 10.0 mi NNW 17.3 mph - N/A   Clear
7:16 AM 24.8 °F 11.9 °F 12.2 °F 59% 30.11 in 10.0 mi NNW 16.1 mph - N/A   Clear
7:35 AM 24.8 °F 11.5 °F 12.2 °F 59% 30.12 in 10.0 mi NNW 17.3 mph 21.9 mph N/A   Clear
7:56 AM 24.8 °F 11.5 °F 12.2 °F 59% 30.13 in 10.0 mi North 17.3 mph - N/A   Clear
8:15 AM 24.8 °F 11.5 °F 12.2 °F 59% 30.13 in 10.0 mi NNW 17.3 mph - N/A   Clear
8:36 AM 26.6 °F 15.2 °F 12.2 °F 55% 30.14 in 10.0 mi NNW 13.8 mph - N/A   Clear
8:55 AM 26.6 °F 13.1 °F 10.4 °F 51% 30.14 in 10.0 mi North 19.6 mph 23.0 mph N/A   Clear
9:16 AM 28.4 °F 16.2 °F 10.4 °F 47% 30.14 in 10.0 mi North 17.3 mph 24.2 mph N/A   Clear
9:35 AM 28.4 °F 15.8 °F 10.4 °F 47% 30.14 in 10.0 mi North 18.4 mph - N/A   Clear
9:56 AM 28.4 °F 15.1 °F 6.8 °F 40% 30.14 in 10.0 mi North 20.7 mph 27.6 mph N/A   Clear
10:15 AM 30.2 °F 18.1 °F 6.8 °F 37% 30.14 in 10.0 mi North 18.4 mph 24.2 mph N/A   Clear
10:35 AM 30.2 °F 17.8 °F 6.8 °F 37% 30.14 in 10.0 mi North 19.6 mph 25.3 mph N/A   Clear
10:56 AM 32.0 °F 20.1 °F 6.8 °F 35% 30.15 in 10.0 mi North 19.6 mph 27.6 mph N/A   Clear
11:15 AM 33.8 °F 23.5 °F 6.8 °F 32% 30.15 in 10.0 mi North 16.1 mph 24.2 mph N/A   Clear
11:35 AM 33.8 °F 22.2 °F 5.0 °F 30% 30.14 in 10.0 mi NNW 20.7 mph 27.6 mph N/A   Clear
11:55 AM 33.8 °F 22.2 °F 3.2 °F 28% 30.14 in 10.0 mi NNW 20.7 mph 26.5 mph N/A   Clear
12:15 PM 33.8 °F 21.6 °F 3.2 °F 28% 30.14 in 10.0 mi North 23.0 mph 28.8 mph N/A   Clear
12:35 PM 35.6 °F 25.2 °F 3.2 °F 26% 30.14 in 10.0 mi North 18.4 mph 26.5 mph N/A   Clear
12:55 PM 35.6 °F 24.0 °F 3.2 °F 26% 30.14 in 10.0 mi NNW 23.0 mph 31.1 mph N/A   Clear
1:15 PM 35.6 °F 23.4 °F 3.2 °F 26% 30.13 in 10.0 mi NW 25.3 mph 35.7 mph N/A   Clear
1:35 PM 35.6 °F 24.0 °F 3.2 °F 26% 30.14 in 10.0 mi NNW 23.0 mph 33.4 mph N/A   Clear
1:56 PM 35.6 °F 24.2 °F 3.2 °F 26% 30.13 in 10.0 mi NNW 21.9 mph 31.1 mph N/A   Clear
2:15 PM 35.6 °F 24.5 °F 6.8 °F 30% 30.13 in 10.0 mi NNW 20.7 mph 28.8 mph N/A   Clear
2:35 PM 35.6 °F 23.4 °F 6.8 °F 30% 30.13 in 10.0 mi NNW 25.3 mph 32.2 mph N/A   Clear
2:56 PM 35.6 °F 24.0 °F 5.0 °F 28% 30.13 in 10.0 mi NNW 23.0 mph 28.8 mph N/A   Clear
3:15 PM 33.8 °F 21.6 °F 6.8 °F 32% 30.13 in 10.0 mi NNW 23.0 mph 28.8 mph N/A   Clear
3:35 PM 33.8 °F 21.6 °F 6.8 °F 32% 30.13 in 10.0 mi NW 23.0 mph 31.1 mph N/A   Clear
3:56 PM 33.8 °F 21.3 °F 8.6 °F 35% 30.13 in 10.0 mi NW 24.2 mph - N/A   Clear
4:15 PM 35.6 °F 24.0 °F 8.6 °F 33% 30.12 in 10.0 mi NW 23.0 mph 32.2 mph N/A   Clear
4:35 PM 35.6 °F 24.0 °F 5.0 °F 28% 30.11 in 10.0 mi NW 23.0 mph 35.7 mph N/A   Clear
4:56 PM 33.8 °F 20.8 °F 6.8 °F 32% 30.11 in 10.0 mi NNW 26.5 mph - N/A   Clear
5:15 PM 33.8 °F 21.3 °F 6.8 °F 32% 30.11 in 10.0 mi NNW 24.2 mph 33.4 mph N/A   Clear
5:35 PM 33.8 °F 22.2 °F 6.8 °F 32% 30.11 in 10.0 mi NW 20.7 mph 29.9 mph N/A   Clear
5:56 PM 35.6 °F 23.7 °F 8.6 °F 33% 30.11 in 10.0 mi NNW 24.2 mph 29.9 mph N/A   Scattered Clouds
6:15 PM 32.0 °F 20.1 °F 8.6 °F 38% 30.11 in 10.0 mi NW 19.6 mph - N/A   Scattered Clouds
6:35 PM 32.0 °F 21.2 °F 8.6 °F 38% 30.12 in 10.0 mi NNW 16.1 mph 26.5 mph N/A   Scattered Clouds
6:56 PM 32.0 °F 20.1 °F 8.6 °F 38% 30.12 in 10.0 mi North 19.6 mph 24.2 mph N/A   Scattered Clouds
7:15 PM 32.0 °F 19.8 °F 8.6 °F 38% 30.12 in 10.0 mi NNW 20.7 mph 25.3 mph N/A   Scattered Clouds
7:35 PM 30.2 °F 18.5 °F 8.6 °F 40% 30.13 in 10.0 mi North 17.3 mph - N/A   Mostly Cloudy
7:56 PM 30.2 °F 19.3 °F 8.6 °F 40% 30.13 in 10.0 mi NNW 15.0 mph - N/A   Mostly Cloudy
8:15 PM 28.4 °F 15.8 °F 10.4 °F 47% 30.14 in 10.0 mi NNW 18.4 mph - N/A   Scattered Clouds
8:35 PM 28.4 °F 18.0 °F 10.4 °F 47% 30.14 in 10.0 mi North 12.7 mph - N/A   Scattered Clouds
8:55 PM 28.4 °F 17.0 °F 12.2 °F 51% 30.15 in 10.0 mi NNW 15.0 mph - N/A   Scattered Clouds
9:15 PM 26.6 °F 15.7 °F 10.4 °F 51% 30.15 in 10.0 mi NNW 12.7 mph 21.9 mph N/A   Scattered Clouds
9:36 PM 26.6 °F 15.7 °F 10.4 °F 51% 30.16 in 10.0 mi North 12.7 mph - N/A   Scattered Clouds
9:55 PM 26.6 °F 15.7 °F 10.4 °F 51% 30.16 in 10.0 mi North 12.7 mph - N/A   Clear
10:15 PM 24.8 °F 12.9 °F 10.4 °F 54% 30.17 in 10.0 mi North 13.8 mph - N/A   Clear
10:36 PM 24.8 °F 12.4 °F 8.6 °F 50% 30.17 in 10.0 mi NNW 15.0 mph - N/A   Clear
10:55 PM 24.8 °F 14.6 °F 8.6 °F 50% 30.17 in 10.0 mi NNW 10.4 mph - N/A   Clear
11:15 PM 23.0 °F 12.4 °F 8.6 °F 54% 30.17 in 10.0 mi NNW 10.4 mph - N/A   Clear
11:36 PM 23.0 °F 10.6 °F 6.8 °F 50% 30.17 in 10.0 mi North 13.8 mph - N/A   Clear
11:55 PM 23.0 °F 10.6 °F 6.8 °F 50% 30.17 in 10.0 mi NNW 13.8 mph - N/A   Clear